Location: Fort Worth, Tx
(32.7431°N, 97.3695°W)
Time: 08:05:25
(UTC-04:00)

Explorer 11/Cluster Stage 4 - Pass Details

Date: 04 February 2023
Orbit: 466 x 1241 km, 28.8° (Epoch: 02 April)

Event Time Altitude Azimuth Distance (km) Brightness Sun altitude
Exits shadow 06:24:32 35° 227° (SW) 1,822 8.0 -25.1°
Maximum altitude 06:27:49 57° 168° (SSE) 1,411 7.8 -24.4°
Drops below altitude 10° 06:35:47 10° 92° (E) 3,196 10.8 -22.7°
Sets 06:38:44 0° 88° (E) 4,136 11.8 -22.1°
